Flag for Barbados Weather past 2 weeks in Bridgetown, Barbados

Now
81 °F

Partly cloudy.


Feels Like: 86 °F
Forecast: 81 / 87 °F
Wind: 25 mph from East

Location: Grantley Adams

Current Time: Jul 26, 2014 at 1:11:02 AM

Latest Report: Jul 26, 2014 at 12:00 AM


Visibility: N/A

Pressure: 29.98 "Hg

Humidity: 84%

Dew point: 75 °F

Location of BridgetownLocation

Historic Weather in Bridgetown — Graph

°F

Bridgetown temperature yesterday

Maximum temperature yesterday: 86 °F (at 11:00 AM)
Minimum temperature yesterday: 81 °F (at 12:00 AM)
Average temperature yesterday: 82 °F

Past Weeks' High & Low Weather Summary

 TemperatureHumidityPressure
High88 °F (Jul 12, 2:00 PM)100% (Jul 15, 9:00 AM)30.09 "Hg (Jul 15, 9:00 AM)
Low36 °F (Jul 16, 3:00 AM)59% (Jul 12, 2:00 PM)29.92 "Hg (Jul 24, 4:00 PM)
Average81 °F79%30.01 "Hg
* Reported Midnight between Jul 10 and Jul 11 — Midnight between Jul 25 and Jul 26, Bridgetown, Weather by CustomWeather, © 2014

Note: Actual official high and low records may vary slightly from our data, if they occured in-between our weather recording intervals... More about our weather records

Advertising

Bridgetown weather history for previous 24 hours

 ConditionsComfort  
Time TempWeatherWind HumidityBarometerVisibility
12:00 AM
Jul 26
81 °FPartly cloudy.25 mph84%29.98 "HgN/A
11:00 PM
Jul 25
81 °FPassing clouds.24 mph84%29.98 "HgN/A
10:00 PM81 °FSprinkles. Passing clouds.24 mph84%30.01 "HgN/A
9:00 PM81 °FPassing clouds.24 mph79%29.98 "HgN/A
8:00 PM81 °FPassing clouds.26 mph79%29.98 "HgN/A
7:00 PM82 °FSprinkles. Partly cloudy.21 mph79%29.95 "HgN/A
6:00 PM82 °FBroken clouds.23 mph74%29.92 "HgN/A
5:00 PM82 °FBroken clouds.25 mph79%29.92 "HgN/A
4:00 PM84 °FBroken clouds.28 mph74%29.92 "HgN/A
3:00 PM84 °FScattered clouds.26 mph70%29.92 "HgN/A
2:00 PM86 °FPassing clouds.26 mph70%29.95 "HgN/A
1:00 PM86 °FScattered clouds.26 mph70%29.95 "HgN/A
12:00 PM86 °FBroken clouds.26 mph70%29.98 "HgN/A
11:00 AM86 °FPartly sunny.23 mph66%30.01 "HgN/A
10:00 AM84 °FPartly sunny.24 mph74%30.01 "HgN/A
9:00 AM84 °FPartly sunny.28 mph70%30.01 "HgN/A
7:00 AM81 °FBroken clouds.22 mph84%29.98 "HgN/A
6:00 AM81 °FBroken clouds.18 mph84%29.98 "HgN/A
5:00 AM81 °FPartly cloudy.20 mph79%29.95 "HgN/A
4:00 AM81 °FPartly cloudy.22 mph84%29.95 "HgN/A
3:00 AM81 °FPassing clouds.22 mph84%29.95 "HgN/A
2:00 AM81 °FPassing clouds.24 mph79%29.92 "HgN/A
1:00 AM81 °FPartly cloudy.25 mph84%29.95 "HgN/A
Weather by CustomWeather, © 2014

See weather overviewHow to use our weather pages